Location: Observatoire
(46.1952°N, 5.3391°E)
Time: 12:13:47
(UTC+02:00)

X-37B - Visible Passes

Search period start: 26 September 2021 00:00
Search period end: 06 October 2021 00:00
Orbit: 381 x 393 km, 45.0° (Epoch: 29 August)

Date Brightness Start Highest point End Pass type
(mag) Time Alt. Az. Time Alt. Az. Time Alt. Az.
26 Sep 3.9 04:44:46 11° E 04:44:46 11° E 04:44:53 10° E visible
26 Sep 0.7 06:17:04 27° WSW 06:18:34 65° S 06:21:42 10° E visible
27 Sep 2.2 05:21:20 32° ESE 05:21:20 32° ESE 05:23:18 10° E visible
27 Sep 0.6 06:53:37 10° W 06:56:45 71° S 06:59:55 10° E visible
28 Sep 0.5 05:57:54 57° WSW 05:58:23 72° S 06:01:33 10° E visible
29 Sep 3.3 05:02:12 18° E 05:02:12 18° E 05:03:10 10° E visible
29 Sep 0.7 06:34:29 19° W 06:36:35 61° S 06:39:42 10° ESE visible
30 Sep 1.2 05:38:49 52° ESE 05:38:49 52° ESE 05:41:22 10° E visible
01 Oct 1.0 06:15:30 35° WSW 06:16:22 46° SSW 06:19:25 10° ESE visible
02 Oct 2.9 05:19:57 21° ESE 05:19:57 21° ESE 05:21:09 10° ESE visible
02 Oct 2.1 06:52:16 12° WSW 06:54:21 22° SSW 06:56:51 10° SSE visible
03 Oct 1.9 05:56:49 29° S 05:56:49 29° S 05:58:59 10° SE visible
04 Oct 2.7 06:33:47 14° SW 06:33:59 14° SSW 06:35:41 10° S visible
